Location: Monroe
(41.9160°N, 83.3980°W)
Time: 05:08:45
(UTC-04:00)

Amateur Radio Satellites - All Passes

Search period start: 31 October 2014 04:38
Search period end: 01 November 2014 04:38
Location: Monroe, 41.9160°N, 83.3980°W

Satellite Date Start Highest point End Downlink Frequencies (MHz)
Time Altitude Azimuth
Oscar 19 31 Oct 04:44:54 04:48:00 16° 299° (WNW) 04:51:06 437.125 CW, 437.150 USB
Uosat F 31 Oct 04:44:54 04:46:56 12° 89° (E) 04:48:57 435.120 FM
AO-7 31 Oct 04:58:25 05:05:38 32° 96° (E) 05:12:49 29.400 - 29.500 MHz
RS-15 31 Oct 05:13:43 05:23:46 37° 36° (NE) 05:34:08 29.354 - 29.394 USB, Beacon 29.352 USB
AO-27 31 Oct 05:19:37 05:23:15 19° 298° (WNW) 05:26:52 436.795 MHz FM
Gurwin Techsat 1B 31 Oct 05:31:56 05:36:19 27° 295° (WNW) 05:40:42 435.225 FM
TMSAT-1 31 Oct 05:38:26 05:43:02 31° 293° (WNW) 05:47:37 436.925 FM
JAS-1B 31 Oct 05:39:28 05:42:59 15° 304° (NW) 05:46:46 435.800 - 435.900 CW/SSB
OPAL 31 Oct 05:54:16 05:59:23 88° 73° (ENE) 06:04:28 ?
Sapphire 31 Oct 05:54:41 05:56:03 11° 327° (NNW) 05:57:24 437.095 MHz 1200 baud AX-25 AFSK
STRAND 1 31 Oct 06:13:22 06:16:35 17° 61° (ENE) 06:19:49 ?
Hamsat 31 Oct 06:13:49 06:15:43 13° 90° (E) 06:17:38 145.90 MHz
Uosat F 31 Oct 06:21:12 06:26:16 77° 286° (WNW) 06:31:17 435.120 FM
JAS-2 31 Oct 06:40:45 06:48:29 56° 99° (E) 06:55:55 435.800 - 435.900 CW/SSB, 435.910 FM
Saudisat 1A 31 Oct 06:44:42 06:49:03 70° 121° (ESE) 06:53:27 436.775 MHz
AO-7 31 Oct 06:50:40 06:58:47 59° 295° (WNW) 07:06:55 29.400 - 29.500 MHz
PANSAT 31 Oct 06:52:46 06:53:50 11° 181° (S) 06:54:53 not established
RS-15 31 Oct 07:26:07 07:37:18 79° 241° (WSW) 07:48:59 29.354 - 29.394 USB, Beacon 29.352 USB
OPAL 31 Oct 07:37:47 07:38:53 11° 269° (W) 07:39:58 ?
Hamsat 31 Oct 07:47:52 07:51:59 54° 286° (WNW) 07:56:08 145.90 MHz
STRAND 1 31 Oct 07:50:08 07:55:13 65° 258° (WSW) 08:00:22 ?
Uosat F 31 Oct 08:03:34 08:04:10 10° 304° (WNW) 08:04:46 435.120 FM
MaSat-1 31 Oct 08:13:55 08:16:18 38° 60° (ENE) 08:18:32 437.345 MHz
Saudisat 1A 31 Oct 08:26:11 08:29:06 17° 320° (NW) 08:32:02 436.775 MHz
JAS-2 31 Oct 08:26:13 08:33:05 35° 297° (WNW) 08:39:50 435.800 - 435.900 CW/SSB, 435.910 FM
AO-7 31 Oct 08:45:57 08:49:52 14° 316° (NW) 08:53:48 29.400 - 29.500 MHz
SO-67 31 Oct 08:51:56 08:55:22 68° 284° (WNW) 08:58:46 435.3500 MHz FM
HO-68 31 Oct 09:36:13 09:42:10 27° 94° (E) 09:48:03 435.675 MHz FM
RS-15 31 Oct 09:40:58 09:47:53 19° 261° (W) 09:54:59 29.354 - 29.394 USB, Beacon 29.352 USB
Oscar 11 31 Oct 10:28:50 10:32:07 21° 94° (E) 10:35:22 145.825 FM, Beacon 2401.500 USB
ISS 31 Oct 10:39:40 10:42:41 33° 137° (SE) 10:45:44 145.800 FM
KITSAT 1 31 Oct 10:43:16 10:50:00 30° 106° (ESE) 10:56:45 435.175 FM
FUNcube-1 31 Oct 10:46:11 10:48:02 13° 90° (E) 10:49:53 145.950 - 145.970 MHz USB
Sapphire 31 Oct 11:10:44 11:15:06 24° 46° (NE) 11:19:28 437.095 MHz 1200 baud AX-25 AFSK
HO-68 31 Oct 11:23:12 11:30:14 59° 292° (WNW) 11:37:14 435.675 MHz FM
UKube-1 31 Oct 11:28:56 11:33:20 85° 284° (WNW) 11:37:41 145.840 MHz, 145.915 MHz
PCSat 31 Oct 11:32:07 11:37:06 36° 51° (NE) 11:42:03 145.825 MHz
ZACube-1 31 Oct 11:37:43 11:41:49 49° 99° (E) 11:45:50 437.345 MHz
Oscar 11 31 Oct 12:04:27 12:08:22 34° 290° (WNW) 12:12:16 145.825 FM, Beacon 2401.500 USB
SO-50 31 Oct 12:12:20 12:16:50 86° 122° (ESE) 12:21:29 436.795 FM
ISS 31 Oct 12:16:17 12:19:22 34° 335° (NNW) 12:22:28 145.800 FM
FUNcube-1 31 Oct 12:20:40 12:24:46 52° 287° (WNW) 12:28:47 145.950 - 145.970 MHz USB
KITSAT 1 31 Oct 12:36:53 12:44:52 63° 306° (NW) 12:52:54 435.175 FM
Oscar 19 31 Oct 12:45:26 12:47:50 13° 59° (ENE) 12:50:14 437.125 CW, 437.150 USB
JAS-1B 31 Oct 12:46:21 12:49:22 15° 57° (ENE) 12:52:26 435.800 - 435.900 CW/SSB
Sapphire 31 Oct 12:53:34 12:58:55 58° 245° (WSW) 13:04:13 437.095 MHz 1200 baud AX-25 AFSK
UOSAT-12 31 Oct 12:57:37 13:01:22 25° 112° (ESE) 13:05:11 437.025 FM, 437.400 FM
HO-68 31 Oct 13:13:58 13:16:28 12° 312° (NW) 13:18:57 435.675 MHz FM
ZACube-1 31 Oct 13:15:26 13:17:47 15° 296° (WNW) 13:20:07 437.345 MHz
PCSat 31 Oct 13:15:35 13:20:29 35° 250° (WSW) 13:25:20 145.825 MHz
AO-27 31 Oct 13:21:48 13:23:59 13° 58° (ENE) 13:26:09 436.795 MHz FM
Oscar 16 31 Oct 13:29:49 13:34:25 34° 68° (ENE) 13:39:01 437.025 USB, Beacon 2401.1428
Saudisat 1A 31 Oct 13:33:41 13:34:57 11° 34° (NE) 13:36:13 436.775 MHz
ISS 31 Oct 13:54:38 13:56:47 16° 354° (N) 13:58:57 145.800 FM
SO-50 31 Oct 13:55:14 13:58:03 16° 322° (NW) 14:00:56 436.795 FM
Uribyol 2 31 Oct 14:02:47 14:07:17 30° 66° (ENE) 14:11:48 436.500 FM
AO-Echo 31 Oct 14:05:11 14:09:45 37° 68° (ENE) 14:14:27 ?
ITAMSAT 1 31 Oct 14:10:34 14:15:12 33° 67° (ENE) 14:19:51 435.822 SSB
AO-7 31 Oct 14:13:22 14:14:44 11° 40° (NE) 14:16:06 29.400 - 29.500 MHz
Oscar 19 31 Oct 14:21:19 14:26:28 83° 256° (WSW) 14:31:38 437.125 CW, 437.150 USB
JAS-1B 31 Oct 14:33:34 14:39:20 77° 256° (WSW) 14:45:05 435.800 - 435.900 CW/SSB
KITSAT 1 31 Oct 14:36:27 14:42:03 20° 330° (NNW) 14:47:40 435.175 FM
UOSAT-12 31 Oct 14:36:54 14:41:18 41° 310° (NW) 14:45:47 437.025 FM, 437.400 FM
AO-27 31 Oct 14:57:28 15:02:42 89° 75° (ENE) 15:07:58 436.795 MHz FM
Oscar 16 31 Oct 15:09:18 15:13:46 30° 264° (W) 15:18:15 437.025 USB, Beacon 2401.1428
Saudisat 1A 31 Oct 15:11:02 15:15:25 61° 54° (NE) 15:19:48 436.775 MHz
Gurwin Techsat 1B 31 Oct 15:12:55 15:18:09 66° 73° (ENE) 15:23:26 435.225 FM
TMSAT-1 31 Oct 15:19:22 15:24:32 56° 72° (ENE) 15:29:44 436.925 FM
ISS 31 Oct 15:31:52 15:34:25 20° 15° (NNE) 15:36:57 145.800 FM
Uribyol 2 31 Oct 15:41:55 15:46:39 35° 263° (W) 15:51:25 436.500 FM
AO-Echo 31 Oct 15:44:23 15:48:34 27° 266° (W) 15:52:54 ?
ITAMSAT 1 31 Oct 15:50:04 15:54:39 31° 264° (W) 15:59:18 435.822 SSB
AO-7 31 Oct 15:57:41 16:05:24 46° 62° (ENE) 16:13:07 29.400 - 29.500 MHz
Uosat F 31 Oct 15:57:54 16:01:27 20° 62° (ENE) 16:05:00 435.120 FM
KITSAT 1 31 Oct 16:38:56 16:41:26 12° 1° (N) 16:43:56 435.175 FM
AO-27 31 Oct 16:41:43 16:42:54 11° 272° (W) 16:44:05 436.795 MHz FM
Saudisat 1A 31 Oct 16:52:04 16:54:29 15° 251° (WSW) 16:56:54 436.775 MHz
JAS-2 31 Oct 16:54:09 16:59:15 25° 59° (ENE) 17:04:48 435.800 - 435.900 CW/SSB, 435.910 FM
Gurwin Techsat 1B 31 Oct 16:55:26 16:58:35 16° 270° (W) 17:01:45 435.225 FM
TMSAT-1 31 Oct 17:01:09 17:04:48 19° 268° (W) 17:08:28 436.925 FM
ISS 31 Oct 17:08:12 17:11:32 74° 33° (NNE) 17:14:52 145.800 FM
Hamsat 31 Oct 17:09:22 17:09:58 10° 62° (ENE) 17:10:33 145.90 MHz
Uosat F 31 Oct 17:34:55 17:39:49 53° 259° (W) 17:44:46 435.120 FM
AO-7 31 Oct 17:50:28 17:58:11 43° 261° (W) 18:05:57 29.400 - 29.500 MHz
OPAL 31 Oct 18:04:41 18:08:25 21° 96° (E) 18:12:07 ?
KITSAT 1 31 Oct 18:34:50 18:40:42 21° 32° (NNE) 18:46:33 435.175 FM
JAS-2 31 Oct 18:37:23 18:43:35 64° 260° (W) 18:50:41 435.800 - 435.900 CW/SSB, 435.910 FM
Hamsat 31 Oct 18:41:07 18:45:17 75° 258° (WSW) 18:49:29 145.90 MHz
ISS 31 Oct 18:46:08 18:47:50 13° 230° (SW) 18:49:31 145.800 FM
SO-50 31 Oct 19:04:12 19:07:06 16° 37° (NE) 19:10:01 436.795 FM
SO-67 31 Oct 19:24:38 19:27:49 36° 73° (ENE) 19:31:00 435.3500 MHz FM
OPAL 31 Oct 19:42:48 19:47:30 45° 292° (WNW) 19:52:11 ?
RS-15 31 Oct 19:45:41 19:50:09 13° 96° (E) 19:54:35 29.354 - 29.394 USB, Beacon 29.352 USB
STRAND 1 31 Oct 20:00:31 20:05:24 41° 98° (E) 20:10:13 ?
HO-68 31 Oct 20:06:13 20:11:31 23° 56° (ENE) 20:16:49 435.675 MHz FM
KITSAT 1 31 Oct 20:29:38 20:37:43 69° 56° (NE) 20:45:45 435.175 FM
SO-50 31 Oct 20:43:31 20:48:23 84° 57° (ENE) 20:53:17 436.795 FM
AO-40 31 Oct 20:47:34 22:20:22 16° 110° (ESE) 23:16:59 Beacon 2401.320
SO-67 31 Oct 20:59:31 21:00:57 12° 269° (W) 21:02:22 435.3500 MHz FM
Oscar 11 31 Oct 21:24:44 21:27:41 18° 65° (ENE) 21:30:39 145.825 FM, Beacon 2401.500 USB
UOSAT-12 31 Oct 21:26:16 21:30:19 27° 45° (NE) 21:34:17 437.025 FM, 437.400 FM
STRAND 1 31 Oct 21:40:11 21:44:20 25° 295° (WNW) 21:48:28 ?
FUNcube-1 31 Oct 21:43:13 21:45:20 13° 63° (ENE) 21:47:25 145.950 - 145.970 MHz USB
RS-15 31 Oct 21:49:23 22:00:13 68° 116° (ESE) 22:11:00 29.354 - 29.394 USB, Beacon 29.352 USB
MaSat-1 31 Oct 21:50:16 21:52:10 13° 106° (ESE) 21:53:58 437.345 MHz
HO-68 31 Oct 21:51:19 21:58:29 76° 255° (WSW) 22:05:42 435.675 MHz FM
UKube-1 31 Oct 22:24:23 22:28:44 87° 75° (ENE) 22:33:08 145.840 MHz, 145.915 MHz
KITSAT 1 31 Oct 22:26:00 22:32:26 27° 255° (WSW) 22:38:51 435.175 FM
SO-50 31 Oct 22:26:23 22:28:17 12° 253° (WSW) 22:30:11 436.795 FM
ZACube-1 31 Oct 22:34:08 22:38:25 43° 72° (ENE) 22:42:38 437.345 MHz
Oscar 11 31 Oct 22:59:28 23:03:33 42° 262° (W) 23:07:40 145.825 FM, Beacon 2401.500 USB
UOSAT-12 31 Oct 23:06:10 23:10:36 42° 244° (WSW) 23:14:56 437.025 FM, 437.400 FM
FUNcube-1 31 Oct 23:16:41 23:21:11 66° 259° (WSW) 23:25:37 145.950 - 145.970 MHz USB
MaSat-1 31 Oct 23:23:35 23:27:17 44° 299° (WNW) 23:30:38 437.345 MHz
HO-68 31 Oct 23:44:36 23:47:18 12° 273° (W) 23:50:01 435.675 MHz FM
RS-15 01 Nov 00:03:11 00:13:17 41° 321° (NW) 00:23:30 29.354 - 29.394 USB, Beacon 29.352 USB
ZACube-1 01 Nov 00:11:53 00:14:59 18° 267° (W) 00:18:04 437.345 MHz
Oscar 16 01 Nov 01:43:40 01:44:52 11° 88° (E) 01:46:04 437.025 USB, Beacon 2401.1428
Sapphire 01 Nov 01:54:33 01:57:56 17° 105° (ESE) 02:01:20 437.095 MHz 1200 baud AX-25 AFSK
AO-Echo 01 Nov 02:14:02 02:16:02 12° 88° (E) 02:18:02 ?
PCSat 01 Nov 02:14:45 02:19:18 28° 109° (ESE) 02:23:52 145.825 MHz
JAS-1B 01 Nov 02:15:08 02:21:34 32° 96° (E) 02:28:57 435.800 - 435.900 CW/SSB
RS-15 01 Nov 02:21:55 02:29:49 22° 355° (N) 02:37:51 29.354 - 29.394 USB, Beacon 29.352 USB
ITAMSAT 1 01 Nov 02:25:47 02:26:52 11° 88° (E) 02:27:57 435.822 SSB
Oscar 19 01 Nov 02:32:53 02:37:31 33° 97° (E) 02:42:07 437.125 CW, 437.150 USB
AO-27 01 Nov 03:10:37 03:15:15 31° 96° (E) 03:19:49 436.795 MHz FM
Oscar 16 01 Nov 03:19:43 03:24:52 87° 285° (WNW) 03:30:00 437.025 USB, Beacon 2401.1428
Gurwin Techsat 1B 01 Nov 03:29:22 03:33:45 25° 94° (E) 03:38:05 435.225 FM
Sapphire 01 Nov 03:35:23 03:40:45 67° 302° (WNW) 03:46:11 437.095 MHz 1200 baud AX-25 AFSK
TMSAT-1 01 Nov 03:35:38 03:39:39 22° 93° (E) 03:43:38 436.925 FM
AO-Echo 01 Nov 03:50:05 03:55:27 84° 285° (WNW) 04:00:42 ?
Uribyol 2 01 Nov 03:53:41 03:58:55 82° 104° (ESE) 04:04:05 436.500 FM
PCSat 01 Nov 03:57:22 04:02:30 43° 307° (NW) 04:07:40 145.825 MHz
ITAMSAT 1 01 Nov 04:01:48 04:07:03 89° 285° (WNW) 04:12:15 435.822 SSB
AO-7 01 Nov 04:02:26 04:04:43 11° 86° (E) 04:07:00 29.400 - 29.500 MHz
JAS-1B 01 Nov 04:05:23 04:12:16 55° 290° (WNW) 04:20:27 435.800 - 435.900 CW/SSB
Oscar 19 01 Nov 04:12:21 04:16:45 30° 293° (WNW) 04:21:09 437.125 CW, 437.150 USB
